Regional Weather Roundup
Issued by NWS

Home | Current Version | Previous Version | Graphics & Text | Print | Product List | Glossary Off
Versions: 1 2 3 4 5 6 7 8 9 10 11 12 13 14 15 16 17 18 19 20 21 22 23 24 25 26 27 28 29 30 31 32 33 34 35 36 37 38 39 40 41 42 43 44 45 46 47 48 49 50

000
ASUS43 KTOP 051808
RWRKS

WEATHER ROUNDUP FOR KANSAS
NATIONAL WEATHER SERVICE GOODLAND KS
100 PM CDT THU MAY 05 2016

NOTE:  "FAIR" INDICATES FEW OR NO CLOUDS BELOW 12,000 FEET WITH NO
SIGNIFICANT WEATHER AND/OR OBSTRUCTIONS TO VISIBILITY.

KSZ001>006-013>018-027>032-041>047-051900-
NORTHWEST KANSAS

CITY           SKY/WX    TMP DP  RH WIND       PRES   REMARKS
GOODLAND       SUNNY     77  41  27 S14       30.09F
6HR MIN TEMP:  54; 6HR MAX TEMP:  78;

HAYS           SUNNY     73  43  33 SE8       30.11F
HILL CITY      SUNNY     78  45  30 S7        30.09F
6HR MIN TEMP:  41; 6HR MAX TEMP:  79;

RUSSELL        SUNNY     74  42  31 VRB6      30.10F
6HR MIN TEMP:  43; 6HR MAX TEMP:  74;

$$

KSZ061>065-074>080-084>089-051900-
SOUTHWEST KANSAS

CITY           SKY/WX    TMP DP  RH WIND       PRES   REMARKS
DODGE CITY     SUNNY     75  47  36 S12       30.11F
ELKHART          N/A     77  45  32 S9          N/A
GARDEN CITY    SUNNY     78  44  29 S15G25    30.09F
6HR MIN TEMP:  48; 6HR MAX TEMP:  78;

GREAT BEND     SUNNY     73  41  31 E5        30.10F
LIBERAL        SUNNY     79  50  36 S13       30.10F
PRATT          SUNNY     71  42  35 CALM      30.12F
6HR MIN TEMP:  43; 6HR MAX TEMP:  71;

$$

KSZ066>073-081>083-090>101-051900-
SOUTHEAST KANSAS

CITY           SKY/WX    TMP DP  RH WIND       PRES   REMARKS
CHANUTE        SUNNY     73  41  31 N9        30.09F
6HR MIN TEMP:  46; 6HR MAX TEMP:  74;

COFFEYVILLE    SUNNY     74  43  32 NW9       30.09F
6HR MIN TEMP:  45; 6HR MAX TEMP:  74;

HUTCHINSON     SUNNY     75  42  30 N5        30.11F
6HR MIN TEMP:  44; 6HR MAX TEMP:  75;

MEDICINE LODGE   N/A     76  42  29 VRB7      30.10F
NEWTON         SUNNY     73  37  27 NW8       30.13F
PARSONS        SUNNY     74  45  35 CALM      30.10F
6HR MIN TEMP:  42; 6HR MAX TEMP:  74;

WICHITA INTL   SUNNY     75  41  29 VRB3      30.10F
6HR MIN TEMP:  36; 6HR MAX TEMP:  76;

WICHITA JABRA  SUNNY     76  39  26 CALM      30.10F
6HR MIN TEMP:  47; 6HR MAX TEMP:  76;

WICHITA MCCONL SUNNY     74  41  30 VRB6      30.10F
WINFIELD       SUNNY     76  39  26 N7        30.29S
6HR MIN TEMP:  43; 6HR MAX TEMP:  76;

$$

KSZ007>012-019>026-033>040-048>060-102>105-051900-
NORTHEAST KANSAS

CITY           SKY/WX    TMP DP  RH WIND       PRES   REMARKS
CONCORDIA      SUNNY     73  35  25 E3        30.10F
6HR MIN TEMP:  43; 6HR MAX TEMP:  75;

EMPORIA        SUNNY     73  39  29 NW6       30.09F
6HR MIN TEMP:  45; 6HR MAX TEMP:  73;

LAWRENCE       SUNNY     73  41  31 N8        30.09F
6HR MIN TEMP:  43; 6HR MAX TEMP:  73;

MANHATTAN      SUNNY     76  38  25 CALM      30.08F
6HR MIN TEMP:  42; 6HR MAX TEMP:  76;

MARYSVILLE     SUNNY     72  43  35 NW6       30.09F
OLATHE IND     SUNNY     70  39  32 NW7       30.10F
6HR MIN TEMP:  47; 6HR MAX TEMP:  70;

OLATHE EXE     SUNNY     69  37  30 VRB3      30.10S
6HR MIN TEMP:  49; 6HR MAX TEMP:  70;

SALINA         SUNNY     75  40  28 NW5       30.10F
6HR MIN TEMP:  45; 6HR MAX TEMP:  76;

TOPEKA BILLARD SUNNY     73  41  31 N9G17     30.08F
6HR MIN TEMP:  47; 6HR MAX TEMP:  74;

TOPEKA FORBES  SUNNY     74  45  35 NE6       30.09F
6HR MIN TEMP:  47; 6HR MAX TEMP:  74;

$$




USA.gov is the U.S. government's official web portal to all federal, state and local government web resources and services.